Regional Weather Roundup
Issued by NWS

Home | Current Version | Previous Version | Text Only | Print | Product List | Glossary Off
Versions: 1 2 3 4 5 6 7 8 9 10 11 12 13 14 15 16 17 18 19 20 21 22 23 24 25 26 27 28 29 30 31 32 33 34 35 36 37 38 39 40 41 42 43 44 45 46 47 48 49 50

000
ASUS43 KBIS 200310
RWRND

NORTH DAKOTA REGIONAL WEATHER ROUNDUP
NATIONAL WEATHER SERVICE BISMARCK ND
1000 PM CDT SUN OCT 19 2014

NOTE: "FAIR" INDICATES FEW OR NO CLOUDS BELOW 12,000 FEET WITH NO
SIGNIFICANT WEATHER AND/OR OBSTRUCTIONS TO VISIBILITY.


NDZ001>003-009>011-017-200400-
NORTHWEST NORTH DAKOTA

CITY           SKY/WX    TMP DP  RH WIND       PRES   REMARKS
WILLISTON      CLEAR     44  36  73 CALM      29.99S
MINOT          CLEAR     48  36  63 SW9       29.98R
MINOT AFB      CLEAR     42  36  81 W8        29.97S
$$

NDZ018>021-031>035-040>046-200400-
SOUTHWEST NORTH DAKOTA

CITY           SKY/WX    TMP DP  RH WIND       PRES   REMARKS
BISMARCK       CLEAR     46  37  71 CALM      30.01S
DICKINSON      PTCLDY    42  34  73 S7        30.02S
GARRISON         N/A     44  33  65 N3        30.00R
HETTINGER ARPT CLEAR     42  34  73 CALM      30.06R
$$

NDZ004>008-012>016-024-026-027-054-200400-
NORTHEAST NORTH DAKOTA

CITY           SKY/WX    TMP DP  RH WIND       PRES   REMARKS
GRAND FORKS    CLEAR     46  38  73 NW8       29.90R
GRND FRKS AFB  CLEAR     50  39  67 N8        29.91R
DEVILS LAKE    CLEAR     39  32  75 W6        29.93S
$$

NDZ022-023-025-028>030-036>039-047>053-200400-
SOUTHEAST NORTH DAKOTA

CITY           SKY/WX    TMP DP  RH WIND       PRES   REMARKS
FARGO          CLEAR     47  38  71 W3        29.91R
JAMESTOWN      CLEAR     46  37  71 NW5       29.96R
$$




USA.gov is the U.S. government's official web portal to all federal, state and local government web resources and services.